Regional Weather Roundup
Issued by NWS

Home | Current Version | Previous Version | Graphics & Text | Print | Product List | Glossary On
Versions: 1 2 3 4 5 6 7 8 9 10 11 12 13 14 15 16 17 18 19 20 21 22 23 24 25 26 27 28 29 30 31 32 33 34 35 36 37 38 39 40 41 42 43 44 45 46 47 48 49 50
000
ASUS43 KLMK 251202
RWRKY
KENTUCKY REGIONAL WEATHER ROUNDUP
NATIONAL WEATHER SERVICE LOUISVILLE KY
800 AM EDT MON JUL 25 2016

NOTE "FAIR" INDICATES FEW OR NO CLOUDS BELOW 12,000 FEET
WITH NO SIGNIFICANT WEATHER AND/OR OBSTRUCTIONS TO VISIBILITY.

KYZ001>023-026-027-061>063-070>075-251300-
WESTERN AND SOUTH CENTRAL KENTUCKY

CITY           SKY/WX    TMP DP  RH WIND       PRES   REMARKS
PADUCAH        PTSUNNY   79  76  90 CALM      30.00R
HENDERSON      MOSUNNY   77  72  83 CALM      29.98S
OWENSBORO      CLOUDY    79  79 100 S7        29.99F FOG
HOPKINSVILLE     N/A     78  73  85 S5        30.03R
BOWLING GREEN  CLOUDY    80  75  84 S5        30.04R
GLASGOW        NOT AVBL
$$

KYZ024-025-028>034-038-045-046-053-251300-
NORTH CENTRAL KENTUCKY

CITY           SKY/WX    TMP DP  RH WIND       PRES   REMARKS
LOUISVILLE/SDF CLOUDY    82  75  79 S3        30.00S
LOUISVILLE/LOU MOSUNNY   81  75  82 S3        30.01S
FORT KNOX      NOT AVBL
$$

KYZ035>037-039>044-047>052-055>060-089>105-251300-
NORTHEAST KENTUCKY

CITY           SKY/WX    TMP DP  RH WIND       PRES   REMARKS
LEXINGTON      CLOUDY    77  74  90 S5        30.06R
COVINGTON      CLOUDY    78  76  93 SW3       30.01R
FRANKFORT      CLOUDY    79  75  87 CALM      30.03R
$$

KYZ054-064>069-076>088-106>120-251300-
SOUTHEAST KENTUCKY

CITY           SKY/WX    TMP DP  RH WIND       PRES   REMARKS
JACKSON        MOSUNNY   77  74  90 CALM      30.08R
LONDON         MOSUNNY   74  71  91 CALM      30.09R
SOMERSET       CLOUDY    72  72 100 CALM      30.09R
MIDDLESBORO    CLOUDY    73  73 100 CALM      30.11R FOG
MONTICELLO     CLOUDY   N/A N/A N/A W10       30.09R
$$





USA.gov is the U.S. government's official web portal to all federal, state and local government web resources and services.